Regional Weather Roundup
Issued by NWS Little Rock, AR

Home | Current Version | Previous Version | Graphics & Text | Print | Product List | Glossary On
Versions: 1 2 3 4 5 6 7 8 9 10 11 12 13 14 15 16 17 18 19 20 21 22 23 24 25 26 27 28 29 30 31 32 33 34 35 36 37 38 39 40 41 42 43 44 45 46 47 48 49 50
000
ASUS44 KLZK 251705
RWRLZK

WEATHER ROUNDUP FOR ARKANSAS
NATIONAL WEATHER SERVICE LITTLE ROCK AR
1200 PM CDT FRI JUL 25 2014

NOTE: "FAIR" INDICATES FEW OR NO CLOUDS BELOW 12,000 FEET WITH NO
SIGNIFICANT WEATHER AND/OR OBSTRUCTIONS TO VISIBILITY.

ARZ001-003-010-029-251800-
NORTHWEST ARKANSAS

CITY           SKY/WX    TMP DP  RH WIND       PRES   REMARKS
FAYETTEVILLE   SUNNY     81  70  69 S9        30.04F
FORT SMITH     MOSUNNY   86  71  60 W5        30.01F HX  91
HARRISON       MOSUNNY   82  70  66 S8        30.04F HX  86
BENTONVILLE    MOSUNNY   82  70  65 SW9       30.03F HX  86
ROGERS         SUNNY     84  68  58 S16G23    30.03F HX  87
SILOAM SPGS    SUNNY     82  66  57 SW15      30.04F HX  85
HIGHFILL       MOSUNNY   84  70  62 SW14      30.02F HX  88
SPRINGDALE     MOSUNNY   82  70  65 S15       30.05F HX  86
$$

ARZ004-005-016-251800-
NORTH CENTRAL ARKANSAS

CITY           SKY/WX    TMP DP  RH WIND       PRES   REMARKS
BATESVILLE     MOSUNNY   81  63  54 S6        30.05
FLIPPIN        SUNNY     82  68  61 S7        30.02  HX  85
MTN HOME       SUNNY     81  68  64 VRB7      30.02F
$$

ARZ040-041-251800-
WEST CENTRAL ARKANSAS

CITY           SKY/WX    TMP DP  RH WIND       PRES   REMARKS
MENA           PTSUNNY   82  72  69 CALM      30.06F HX  87
MOUNT IDA      PTSUNNY   80  70  71 SW3       30.04F
$$

ARZ009-017-025-026-028-251800-
NORTHEAST ARKANSAS

CITY           SKY/WX    TMP DP  RH WIND       PRES   REMARKS
CORNING          N/A     79  63  57 S7        30.05F
JONESBORO      MOSUNNY   78  61  55 SW5       30.05
NEWPORT        SUNNY     81  65  58 S3        30.06F
WALNUT RIDGE   SUNNY     79  64  61 SE5       30.05
BLYTHEVILLE    MOSUNNY   81  61  50 CALM      30.06
$$

ARZ022-023-033-042-044-251800-
CENTRAL ARKANSAS

CITY           SKY/WX    TMP DP  RH WIND       PRES   REMARKS
LITTLE ROCK    MOSUNNY   82  61  48 VRB5      30.05F
N LITTLE ROCK  MOSUNNY   81  65  58 SW5       30.05F
JACKSONVILLE   SUNNY     81  63  53 S6        30.05F
SEARCY         SUNNY     82  65  56 S9        30.06F
HOT SPRINGS    MOSUNNY   81  65  58 S5        30.06F
RUSSELLVILLE   MOSUNNY   82  69  64 VRB5      30.03F HX  85
CLINTON        FAIR      81  66  61 S5        30.05F
$$

ARZ036-251800-
EAST ARKANSAS

CITY           SKY/WX    TMP DP  RH WIND       PRES   REMARKS
WEST MEMPHIS   MOSUNNY   81  64  56 NW5       30.05S
$$

ARZ050-053-066-070-073-251800-
SOUTHWEST ARKANSAS

CITY           SKY/WX    TMP DP  RH WIND       PRES   REMARKS
ARKADELPHIA    FAIR      84  70  63 VRB3      30.05F HX  88
CAMDEN         PTSUNNY   84  66  54 S3        30.05F HX  86
TEXARKANA      CLOUDY    84  73  70 S5        30.04F HX  91
EL DORADO      SUNNY     84  71  65 CALM      30.05F HX  89
DE QUEEN       PTSUNNY   82  74  76 S5        30.03F HX  88
$$

ARZ056-057-069-251800-
SOUTHEAST ARKANSAS

CITY           SKY/WX    TMP DP  RH WIND       PRES   REMARKS
PINE BLUFF     SUNNY     80  64  58 CALM      30.05F
STUTTGART      MOSUNNY   82  64  54 SW6       30.07S
MONTICELLO     SUNNY     83  63  50 CALM      30.05F

$$





USA.gov is the U.S. government's official web portal to all federal, state and local government web resources and services.